User: anonymous   Login
Location: Newark
(46.2358°N, 112.1211°W)
Time: 12:12:11
(UTC+00:00)
Language:

CUBEBUG 2 - Orbit

View from above orbital plane
View from above orbital plane
View from above satellite
View from above satellite

Ground track
Ground track

The orbit data is extracted from the following two-line orbital elements,

1 39440U 13066AA  20190.91149634 +.00000124 +00000-0 +24405-4 0  9991
2 39440 097.6316 172.2285 0078490 270.6373 088.5845 14.76024506355744
Epoch (UTC): 08 July 2020 21:52:33
Eccentricity: 0.0078490
inclination: 97.6316°
perigee height: 587 km
apogee height: 697 km
right ascension of ascending node: 172.2285°
argument of perigee: 270.6373°
revolutions per day: 14.76024506
mean anomaly at epoch: 88.5845°
orbit number at epoch: 35574

The dashed part of the orbit path shows where the satellite is in the earth's shadow,  

DLR